Location: *
(37.5724°S, 58.0067°E)
Time: 02:32:25
(UTC+00:00)

NOSS 3-1 (A) - Pass Details

Date: 26 June 2021
Orbit: 729 x 1483 km, 63.4° (Epoch: 23 July)

Event Time Altitude Azimuth Distance (km) Brightness Sun altitude
Rises 15:27:59 0° 211° (SSW) 3,776 6.9 -28.8°
Reaches altitude 10° 15:30:49 10° 208° (SSW) 2,706 6.0 -29.3°
Enters shadow 15:34:43 38° 196° (SSW) 1,327 4.2 -30.1°
